901  
ASUS41 KLWX 180311  
RWRLWX  
 
REGIONAL WEATHER ROUNDUP  
NATIONAL WEATHER SERVICE BALTIMORE MD/WASHINGTON DC  
1100 PM EDT TUE OCT 17 2017  
 
NOTE: "FAIR" INDICATES FEW OR NO CLOUDS BELOW 12,000 FEET  
WITH NO SIGNIFICANT WEATHER AND/OR S TO VISIBILITY
.  
TC=TEMPERATURE CELSIUS  
 
* =NON NWS SITE. STATION DOES NOT REPORT PRECIPITATION (E.G. RAIN,  
SNOW, ETC.), THUNDER, OR FOG.
 
 
DCZ001-MDZ009-015-VAZ040>042-051-053>054-180400-  
WASHINGTON METRO  
 
CITY SKY/WX TMP DP RH WIND PRES REMARKS
 
WASHINGTON NAT CLEAR 51 43 74 SW5 30.35R  
DULLES CLEAR 42 39 89 CALM 30.34R  
ANDREWS AFB CLEAR 44 40 88 S5 30.33R  
FT BELVOIR CLEAR 42 41 93 CALM 30.35R  
QUANTICO CLEAR 46 45 96 NW9 30.36R  
COLLEGE PARK* CLEAR 43 41 93 CALM 30.34R  
LEESBURG* CLEAR 45 43 93 SW3 30.35R  
MANASSAS* CLEAR 41 39 93 CALM 30.35R  
GAITHERSBURG* CLEAR 43 40 89 CALM 30.34R  
 

 
 
MDZ006>007-011-014-180400-  
BALTIMORE METRO  
 
CITY SKY/WX TMP DP RH WIND PRES REMARKS
 
BWI AIRPORT CLEAR 44 42 93 W3 30.33S  
MD SCIENCE CTR N/A 53 40 61 MISG 30.34R  
MARTIN STATE CLEAR 46 46 100 W3 30.34S  
ANNAPOLIS CLEAR 50 45 83 CALM 30.34R  
FORT MEADE* CLEAR 41 39 93 CALM 30.37R  
 

 
 
MDZ012-015-019>023-180400-  
MARYLAND EASTERN SHORE  
 
CITY SKY/WX TMP DP RH WIND PRES REMARKS
 
OCEAN CITY CLEAR 41 40 96 CALM 30.35R  
SALISBURY CLEAR 42 41 96 CALM 30.35R  
CAMBRIDGE* CLEAR 41 39 93 CALM 30.35R  
EASTON* CLEAR 44 40 86 CALM 30.38R  
 

 
 
MDZ017>025-180400-  
SOUTHERN MARYLAND  
 
CITY SKY/WX TMP DP RH WIND PRES REMARKS
 
PATUXENT RIVER CLEAR 42 40 92 CALM 30.34S  
ST INIGOES CLEAR 42 41 96 CALM 30.34R  
LEONARDTOWN* NOT AVBL  
 

 
 
MDZ003>005-180400-  
NORTH CENTRAL MARYLAND  
 
CITY SKY/WX TMP DP RH WIND PRES REMARKS
 
FREDERICK* CLEAR 43 43 100 CALM 30.36R  
HAGERSTOWN APT CLEAR 52 36 54 CALM 30.31R  
WESTMINSTER* CLEAR 48 39 71 CALM 30.32S  
 

 
 
MDZ501>502-180400-  
WESTERN MARYLAND  
 
CITY SKY/WX TMP DP RH WIND PRES REMARKS
 
OAKLAND* CLEAR 43 32 65 SW6 30.29S  
CUMBERLAND* CLEAR 45 43 93 CALM 30.35R  
 

 
 
VAZ025>031-180400-  
SHENANDOAH VALLEY  
 
CITY SKY/WX TMP DP RH WIND PRES REMARKS
 
WINCHESTER* CLEAR 41 36 81 CALM 30.32R  
FRONT ROYAL* CLEAR 43 37 81 S3 30.32R  
LURAY* CLEAR 41 39 93 CALM 30.33R  
NEW MARKET* CLEAR 38 36 92 CALM 30.33R  
STAUNTON* CLEAR 39 34 82 CALM 30.35S  
WAYNESBORO* CLEAR 46 37 71 SW5 30.34S  
 

 
 
WVZ021-048>050-054>055-180400-  
EASTERN WEST VIRGINIA PANHANDLE  
 
CITY SKY/WX TMP DP RH WIND PRES REMARKS
 
MARTINSBURG CLEAR 46 38 73 S3 30.31R  
PETERSBURG* CLEAR 39 38 93 CALM 30.34R  
 

 
 
VAZ036>039-050-180400-  
CENTRAL FOOTHILLS  
 
CITY SKY/WX TMP DP RH WIND PRES REMARKS
 
CHARLOTTESVILL CLEAR 46 42 86 CALM 30.34S  
CULPEPER* CLEAR 40 36 86 CALM 30.36R  
ORANGE* CLEAR 41 37 87 CALM 30.34S  
GORDONSVILLE* CLEAR 40 39 95 CALM 30.34S  
WARRENTON* CLEAR 37 34 88 CALM 30.35R  
 

 
 
VAZ055>057-180400-  
NORTH AND CENTRAL PIEDMONT  
 
CITY SKY/WX TMP DP RH WIND PRES REMARKS
 
FREDERICKSBRG* CLEAR 43 41 95 CALM 30.34S  
STAFFORD* CLEAR 37 37 100 CALM 30.39S  
 

 
 
NCZ024-NYZ072-PAZ021-071-VAZ022-071-180400-  
OTHER REGIONAL OBSERVATIONS  
 
CITY SKY/WX TMP DP RH WIND PRES REMARKS
 
NEW YORK CITY CLEAR 54 37 52 VRB6 30.32R  
PHILADELPHIA CLEAR 52 41 66 SW7 30.32S  
PITTSBURGH CLEAR 50 40 68 SW3 30.29R  
ROANOKE CLEAR 47 40 76 CALM 30.37R  
RICHMOND CLEAR 45 40 82 SE3 30.35R  
RALEIGH PTCLDY 45 41 86 CALM 30.35R  
 

 
 
ANZ530>537-180400-  
MARINE OBSERVATIONS  
 
STATION/POSITION TIME TEMP WIND PRES
 
AIR SEA DIR/SP/G  
(UTC) (F) (DEG/KT/KT) (MB)  
THOMAS PT LIGHT 0300 58 68 230/ 9/ 10 N/A  
BALT KEY BRIDGE 0242 53 220/ 10/ 11 1026.9S  
COVE POINT 0242 55 240/ 4/ 5 1028.2R  
LEWISETTA 0242 52 65 230/ 3/ 4 1027.5R  
SOLOMONS ISLAND 0242 56 70 200/ 2/ 3 1027.1R  
PINEY POINT 0236 220/ 5/ 6 N/A  
 

 
 
 
 
CLICK HERE TO GO TO PREVIOUS BULLETINS.

The Nexlab VA Page
The Nexlab MD Page
The Nexlab WV Page Main Text Page